Quincy, IL

1:24 PM CST on November 20, 2019 (GMT -0600)
Quincy Regional-Baldwin

Weather History for KUIN - July, 2019

Change the Weather History Date:

Monday, July 15, 2019

  Actual Average Record
Temperature  
Mean Temperature 76 °F 76 °F  
Max Temperature 84 °F 86 °F 114 °F (1936)
Min Temperature 67 °F 67 °F 52 °F (1967)
Degree Days  
Heating Degree Days 0 0  
Month to date heating degree days 0 0  
Since 1 June heating degree days 5 16  
Since 1 July heating degree days 0 0  
Cooling Degree Days 11 11  
Month to date cooling degree days 232 165  
Year to date cooling degree days 579 478  
Since 1 June cooling degree days 469 392  
Growing Degree Days 26 (Base 50)    
Moisture  
Dew Point 66 °F    
Average Humidity 74    
Maximum Humidity 93    
Minimum Humidity 55    
Precipitation  
Precipitation 0.01 in 0.14 in 3.17 in (1910)
Month to date precipitation 0.21 2.02  
Year to date precipitation 23.61 20.10  
Sea Level Pressure  
Sea Level Pressure 30.00 in    
Wind  
Wind Speed 10 mph (SE)    
Max Wind Speed 24 mph    
Max Gust Speed 32 mph    
Visibility 9 miles    
Events Rain    
T = Trace of Precipitation, MM = Missing Value Source: NWS Daily Summary

Daily Weather History Graph

Daily Weather History Graph

Search for Another Location

Airport or City:

Astronomy

Jul. 15, 2019 Rise Set
Actual Time 5:48 AM CDT 8:32 PM CDT
Civil Twilight 5:16 AM CDT 9:04 PM CDT
Nautical Twilight 4:36 AM CDT 9:43 PM CDT
Astronomical Twilight 3:51 AM CDT 10:29 PM CDT
Moon 7:50 PM CDT (7/15) 4:36 AM CDT (7/15)
Length of Visible Light 15h 47m
Length of Day
14h 43m
Waxing Gibbous, 99% of the Moon is Illuminated
Jul 15
Waxing Gibbous
Jul 16
Full
Jul 24
Last Quarter
Jul 31
New
Aug 7
First Quarter

Hourly Weather History & Observations

Time (CDT) Temp. Heat Index Dew Point Humidity Pressure Visibility Wind Dir Wind Speed Gust Speed Precip Events Conditions
12:54 AM 75.0 °F - 62.1 °F 64% 30.06 in 10.0 mi South 10.4 mph - N/A   Clear
1:54 AM 73.0 °F - 62.1 °F 68% 30.06 in 10.0 mi SSW 10.4 mph - N/A   Clear
2:54 AM 72.0 °F - 62.1 °F 71% 30.04 in 10.0 mi South 6.9 mph - N/A   Clear
3:54 AM 70.0 °F - 62.1 °F 76% 30.03 in 10.0 mi SW 4.6 mph - N/A   Clear
4:54 AM 70.0 °F - 62.1 °F 76% 30.03 in 10.0 mi South 3.5 mph - N/A   Clear
5:54 AM 69.1 °F - 63.0 °F 81% 30.05 in 10.0 mi East 3.5 mph - N/A   Clear
6:54 AM 71.1 °F - 64.0 °F 78% 30.06 in 10.0 mi ESE 4.6 mph - N/A   Clear
7:54 AM 75.0 °F - 64.9 °F 71% 30.07 in 10.0 mi SSE 4.6 mph - N/A   Clear
8:54 AM 79.0 °F - 64.0 °F 60% 30.06 in 10.0 mi South 8.1 mph - N/A   Clear
9:54 AM - - - N/A% 30.08 in 10.0 mi SSE 9.2 mph - N/A   Clear
10:54 AM 82.0 °F 84.1 °F 66.0 °F 58% 30.04 in 10.0 mi SSE 15.0 mph - N/A   Partly Cloudy
11:54 AM 82.9 °F 84.6 °F 64.9 °F 54% 30.03 in 10.0 mi SE 15.0 mph 26.5 mph N/A   Scattered Clouds
12:54 PM 82.9 °F 84.6 °F 64.9 °F 54% 30.02 in 10.0 mi SSE 19.6 mph 27.6 mph N/A   Scattered Clouds
1:54 PM 81.0 °F 83.3 °F 66.9 °F 62% 30.01 in 10.0 mi SSE 12.7 mph 23.0 mph N/A   Mostly Cloudy
2:54 PM 80.1 °F 82.1 °F 66.0 °F 62% 30.01 in 10.0 mi SE 18.4 mph 29.9 mph N/A   Scattered Clouds
3:15 PM 79.0 °F - 66.0 °F 64% 30.02 in 10.0 mi SE 20.7 mph 29.9 mph N/A   Mostly Cloudy
3:47 PM 79.0 °F - 66.0 °F 64% 30.00 in 10.0 mi SE 23.0 mph 31.1 mph N/A   Mostly Cloudy
3:54 PM 79.0 °F - 64.9 °F 62% 29.98 in 10.0 mi SSE 20.7 mph 31.1 mph N/A   Scattered Clouds
4:22 PM 77.0 °F - 64.9 °F 66% 30.00 in 10.0 mi SE 23.0 mph 32.2 mph N/A   Overcast
4:54 PM 75.9 °F - 64.9 °F 69% 29.97 in 10.0 mi SE 17.3 mph - N/A   Mostly Cloudy
5:02 PM 75.9 °F - 66.0 °F 71% 29.98 in 10.0 mi ESE 13.8 mph 24.2 mph N/A   Overcast
5:54 PM 75.0 °F - 66.0 °F 73% 29.94 in 10.0 mi ESE 11.5 mph - N/A   Overcast
6:54 PM 73.9 °F - 66.0 °F 76% 29.93 in 10.0 mi SE 12.7 mph - N/A   Overcast
7:54 PM 73.0 °F - 66.9 °F 81% 29.92 in 10.0 mi ESE 9.2 mph - 0.00 in   Overcast
8:29 PM 72.0 °F - 68.0 °F 87% 29.93 in 2.5 mi ESE 8.1 mph - 0.00 in Rain Light Rain
8:38 PM 71.1 °F - 68.0 °F 90% 29.93 in 4.0 mi ESE 8.1 mph - 0.00 in   Overcast
8:54 PM 71.1 °F - 68.0 °F 90% 29.91 in 8.0 mi ESE 8.1 mph - 0.00 in   Overcast
9:34 PM 71.1 °F - 69.1 °F 93% 29.93 in 8.0 mi ESE 9.2 mph - 0.00 in   Overcast
9:54 PM 71.1 °F - 69.1 °F 93% 29.93 in 5.0 mi East 5.8 mph - 0.00 in   Overcast
10:54 PM 71.1 °F - 69.1 °F 93% 29.92 in 10.0 mi East 5.8 mph - 0.01 in   Overcast
11:54 PM 72.0 °F - 69.1 °F 91% 29.92 in 6.0 mi East 6.9 mph - N/A   Overcast